RPB7275 SKRG-SKBO

Flight info

Callsign RPB7275
Flight time 0h 25m
Altitude 23000
Route ISVA2B ISVAT ISVA5E
Aircraft B738/M-SDE3FGHIRWY/S

Departure

Time 2026-04-25 01:18
Airport Jose Maria Córdova International Airport (SKRG)

Arrival

Time 2026-04-25 01:43
Airport El Dorado International Airport (SKBO)
Time Latitude Longitude Altitude Speed Heading
2026-04-25 00:32 6.16977 -75.42765 7017 ft 0 kts 329°
2026-04-25 01:05 6.16962 -75.42761 7019 ft 2 kts
2026-04-25 01:05 6.16946 -75.42766 7017 ft 2 kts 33°
2026-04-25 01:05 6.16933 -75.42777 7020 ft 2 kts 46°
2026-04-25 01:05 6.16923 -75.42789 7020 ft 2 kts 54°
2026-04-25 01:06 6.16914 -75.42803 7020 ft 2 kts 61°
2026-04-25 01:06 6.16908 -75.42815 7017 ft 1 kts 68°
2026-04-25 01:06 6.16907 -75.42818 7017 ft 0 kts 70°
2026-04-25 01:10 6.16907 -75.42817 7017 ft 1 kts 70°
2026-04-25 01:10 6.16916 -75.42794 7017 ft 5 kts 70°
2026-04-25 01:11 6.16913 -75.42748 7017 ft 9 kts 108°
2026-04-25 01:11 6.16920 -75.42684 7018 ft 9 kts 53°
2026-04-25 01:11 6.16963 -75.42646 7019 ft 9 kts 35°
2026-04-25 01:11 6.17010 -75.42611 7017 ft 10 kts 48°
2026-04-25 01:12 6.16981 -75.42556 7012 ft 12 kts 153°
2026-04-25 01:12 6.16904 -75.42512 7008 ft 14 kts 151°
2026-04-25 01:12 6.16791 -75.42485 7001 ft 19 kts 178°
2026-04-25 01:12 6.16647 -75.42482 6994 ft 22 kts 178°
2026-04-25 01:13 6.16482 -75.42480 6986 ft 25 kts 179°
2026-04-25 01:13 6.16296 -75.42478 6979 ft 28 kts 180°
2026-04-25 01:13 6.16108 -75.42477 6976 ft 25 kts 179°
2026-04-25 01:13 6.15937 -75.42477 6974 ft 24 kts 180°
2026-04-25 01:14 6.15782 -75.42475 6974 ft 21 kts 179°
2026-04-25 01:14 6.15644 -75.42474 6974 ft 18 kts 181°
2026-04-25 01:14 6.15526 -75.42475 6975 ft 16 kts 178°
2026-04-25 01:14 6.15422 -75.42471 6976 ft 15 kts 178°
2026-04-25 01:15 6.15311 -75.42469 6973 ft 27 kts 180°
2026-04-25 01:15 6.15130 -75.42470 6977 ft 21 kts 180°
2026-04-25 01:15 6.14994 -75.42471 6977 ft 14 kts 180°
2026-04-25 01:15 6.14908 -75.42463 6976 ft 11 kts 147°
2026-04-25 01:16 6.14888 -75.42396 6975 ft 10 kts 89°
2026-04-25 01:16 6.14905 -75.42338 6975 ft 8 kts 50°
2026-04-25 01:16 6.14942 -75.42315 6976 ft 5 kts 29°
2026-04-25 01:16 6.14976 -75.42300 6977 ft 6 kts
2026-04-25 01:17 6.15127 -75.42300 6979 ft 51 kts 359°
2026-04-25 01:17 6.15472 -75.42303 6981 ft 95 kts 360°
2026-04-25 01:17 6.16697 -75.42313 6994 ft 166 kts 359°
2026-04-25 01:17 6.17985 -75.42324 7208 ft 197 kts 359°
2026-04-25 01:18 6.19352 -75.42326 7996 ft 197 kts
2026-04-25 01:18 6.20723 -75.42262 8768 ft 199 kts
2026-04-25 01:18 6.22160 -75.42110 9112 ft 215 kts 16°
2026-04-25 01:18 6.23423 -75.41314 9569 ft 221 kts 53°
2026-04-25 01:19 6.23953 -75.39884 10100 ft 224 kts 90°
2026-04-25 01:19 6.23469 -75.38417 10600 ft 228 kts 129°
2026-04-25 01:19 6.22360 -75.37246 11036 ft 235 kts 135°
2026-04-25 01:19 6.21219 -75.36088 11577 ft 237 kts 135°
2026-04-25 01:20 6.20059 -75.34897 12117 ft 240 kts 134°
2026-04-25 01:20 6.18891 -75.33684 12688 ft 242 kts 134°
2026-04-25 01:20 6.17701 -75.32486 13231 ft 243 kts 143°
2026-04-25 01:20 6.16174 -75.31664 13483 ft 258 kts 159°
2026-04-25 01:21 6.14445 -75.30968 13630 ft 279 kts 159°
2026-04-25 01:21 6.12561 -75.30219 13786 ft 303 kts 159°
2026-04-25 01:21 6.10554 -75.29417 14203 ft 316 kts 159°
2026-04-25 01:21 6.08499 -75.28586 14846 ft 320 kts 159°
2026-04-25 01:22 6.06427 -75.27742 15562 ft 323 kts 159°
2026-04-25 01:22 6.04338 -75.26886 16239 ft 326 kts 158°
2026-04-25 01:22 6.02229 -75.26018 16899 ft 329 kts 158°
2026-04-25 01:22 6.00088 -75.25136 17373 ft 339 kts 158°
2026-04-25 01:23 5.97841 -75.24209 17490 ft 359 kts 158°
2026-04-25 01:23 5.95476 -75.23233 17694 ft 373 kts 158°
2026-04-25 01:23 5.93048 -75.22228 18107 ft 381 kts 158°
2026-04-25 01:23 5.90591 -75.21213 18676 ft 383 kts 158°
2026-04-25 01:24 5.88117 -75.20191 19274 ft 385 kts 158°
2026-04-25 01:24 5.85627 -75.19162 19824 ft 388 kts 158°
2026-04-25 01:24 5.83124 -75.18128 20376 ft 389 kts 158°
2026-04-25 01:24 5.81465 -75.17442 20829 ft 388 kts 158°
2026-04-25 01:25 5.78168 -75.16081 21726 ft 385 kts 158°
2026-04-25 01:25 5.75693 -75.15058 22372 ft 384 kts 158°
2026-04-25 01:25 5.73225 -75.14039 22984 ft 383 kts 158°
2026-04-25 01:25 5.70751 -75.13017 23166 ft 386 kts 158°
2026-04-25 01:26 5.68279 -75.11997 23171 ft 383 kts 158°
2026-04-25 01:26 5.66643 -75.11322 23173 ft 383 kts 158°
2026-04-25 01:26 5.64177 -75.10308 23166 ft 383 kts 158°
2026-04-25 01:26 5.61710 -75.09293 23150 ft 384 kts 158°
2026-04-25 01:27 5.59234 -75.08274 23138 ft 384 kts 158°
2026-04-25 01:27 5.56790 -75.07268 23107 ft 374 kts 158°
2026-04-25 01:27 5.54417 -75.06291 23065 ft 363 kts 158°
2026-04-25 01:28 5.49780 -75.04380 22520 ft 356 kts 158°
2026-04-25 01:28 5.47491 -75.03438 22176 ft 354 kts 158°
2026-04-25 01:28 5.45206 -75.02498 21828 ft 353 kts 158°
2026-04-25 01:28 5.42941 -75.01566 21483 ft 351 kts 158°
2026-04-25 01:29 5.40687 -75.00638 21130 ft 350 kts 158°
2026-04-25 01:29 5.38439 -74.99713 20778 ft 348 kts 158°
2026-04-25 01:29 5.36206 -74.98779 20419 ft 347 kts 157°
2026-04-25 01:29 5.33985 -74.97837 20062 ft 347 kts 157°
2026-04-25 01:30 5.31762 -74.96891 19706 ft 346 kts 157°
2026-04-25 01:30 5.29580 -74.95896 19386 ft 343 kts 149°
2026-04-25 01:30 5.27739 -74.94407 19137 ft 339 kts 133°
2026-04-25 01:30 5.26305 -74.92585 18897 ft 337 kts 125°
2026-04-25 01:31 5.24980 -74.90651 18650 ft 336 kts 124°
2026-04-25 01:31 5.23669 -74.88718 18402 ft 334 kts 124°
2026-04-25 01:31 5.22365 -74.86794 18150 ft 334 kts 124°
2026-04-25 01:31 5.21053 -74.84865 17902 ft 334 kts 124°
2026-04-25 01:32 5.19743 -74.82948 17643 ft 331 kts 124°
2026-04-25 01:32 5.18446 -74.81054 17394 ft 328 kts 124°
2026-04-25 01:32 5.17156 -74.79173 17137 ft 325 kts 124°
2026-04-25 01:32 5.15879 -74.77312 16889 ft 323 kts 124°
2026-04-25 01:33 5.14604 -74.75457 16625 ft 322 kts 124°
2026-04-25 01:33 5.13307 -74.73573 15800 ft 337 kts 124°
2026-04-25 01:33 5.11941 -74.71587 15005 ft 351 kts 124°
2026-04-25 01:33 5.10549 -74.69568 14575 ft 351 kts 124°
2026-04-25 01:34 5.09176 -74.67571 14309 ft 345 kts 124°
2026-04-25 01:34 5.07817 -74.65594 13967 ft 342 kts 124°
2026-04-25 01:34 5.06465 -74.63627 13584 ft 341 kts 124°
2026-04-25 01:34 5.05133 -74.61692 13188 ft 340 kts 124°
2026-04-25 01:35 5.03791 -74.59743 12836 ft 338 kts 124°
2026-04-25 01:35 5.02459 -74.57810 12697 ft 336 kts 124°
2026-04-25 01:35 5.01129 -74.55880 12690 ft 337 kts 124°
2026-04-25 01:35 4.99802 -74.53952 12693 ft 336 kts 124°
2026-04-25 01:36 4.98474 -74.52024 12699 ft 336 kts 124°
2026-04-25 01:36 4.97150 -74.50100 12714 ft 336 kts 124°
2026-04-25 01:36 4.95820 -74.48166 12744 ft 336 kts 124°
2026-04-25 01:36 4.94510 -74.46265 12736 ft 325 kts 124°
2026-04-25 01:37 4.93253 -74.44442 12748 ft 308 kts 124°
2026-04-25 01:37 4.92078 -74.42736 12768 ft 294 kts 124°
2026-04-25 01:37 4.90919 -74.41087 12792 ft 278 kts 127°
2026-04-25 01:37 4.89780 -74.39578 12821 ft 271 kts 128°
2026-04-25 01:38 4.88645 -74.38086 12832 ft 265 kts 127°
2026-04-25 01:38 4.87536 -74.36623 12829 ft 263 kts 127°
2026-04-25 01:38 4.86429 -74.35165 12846 ft 265 kts 128°
2026-04-25 01:38 4.85310 -74.33682 12737 ft 271 kts 127°
2026-04-25 01:39 4.84158 -74.32155 12381 ft 274 kts 127°
2026-04-25 01:39 4.82996 -74.30622 12015 ft 277 kts 127°
2026-04-25 01:39 4.81836 -74.29088 11682 ft 274 kts 127°
2026-04-25 01:39 4.80693 -74.27575 11326 ft 270 kts 127°
2026-04-25 01:40 4.79574 -74.26096 10974 ft 261 kts 127°
2026-04-25 01:40 4.78510 -74.24689 10651 ft 242 kts 127°
2026-04-25 01:40 4.77533 -74.23397 10364 ft 223 kts 127°
2026-04-25 01:40 4.76625 -74.22195 10085 ft 210 kts 127°
2026-04-25 01:41 4.75779 -74.21075 9840 ft 193 kts 127°
2026-04-25 01:41 4.74995 -74.20039 9588 ft 187 kts 127°
2026-04-25 01:41 4.74206 -74.18996 9349 ft 188 kts 127°
2026-04-25 01:41 4.73415 -74.17949 9095 ft 188 kts 127°
2026-04-25 01:42 4.72629 -74.16909 8851 ft 186 kts 127°
2026-04-25 01:42 4.71850 -74.15880 8593 ft 185 kts 128°
2026-04-25 01:42 4.71074 -74.14862 8372 ft 179 kts 126°
2026-04-25 01:42 4.70412 -74.13985 8367 ft 128 kts 127°
2026-04-25 01:43 4.70003 -74.13446 8368 ft 70 kts 127°
2026-04-25 01:43 4.69861 -74.13320 8368 ft 13 kts 182°
2026-04-25 01:43 4.69773 -74.13311 8368 ft 11 kts 172°
2026-04-25 01:43 4.69739 -74.13307 8369 ft 2 kts 172°
2026-04-25 01:44 4.69719 -74.13304 8368 ft 3 kts 172°
2026-04-25 01:44 4.69711 -74.13303 8368 ft 0 kts 172°
2026-04-25 01:44 4.69706 -74.13302 8368 ft 1 kts 171°
2026-04-25 01:44 4.69696 -74.13300 8369 ft 2 kts 171°
2026-04-25 01:45 4.69682 -74.13298 8369 ft 2 kts 171°
2026-04-25 01:45 4.69656 -74.13295 8368 ft 6 kts 173°
2026-04-25 01:45 4.69604 -74.13292 8369 ft 6 kts 185°
2026-04-25 01:45 4.69585 -74.13314 8368 ft 6 kts 268°
2026-04-25 01:46 4.69606 -74.13359 8368 ft 8 kts 303°
2026-04-25 01:46 4.69626 -74.13386 8369 ft 5 kts 307°
2026-04-25 01:46 4.69639 -74.13404 8368 ft 5 kts 307°
2026-04-25 01:46 4.69658 -74.13429 8368 ft 3 kts 307°
2026-04-25 01:47 4.69677 -74.13455 8369 ft 7 kts 307°
2026-04-25 01:47 4.69703 -74.13489 8369 ft 6 kts 307°
2026-04-25 01:47 4.69727 -74.13522 8369 ft 6 kts 307°
2026-04-25 01:47 4.69749 -74.13550 8369 ft 4 kts 307°
2026-04-25 01:48 4.69758 -74.13563 8369 ft 1 kts 307°
2026-04-25 01:48 4.69764 -74.13571 8369 ft 0 kts 307°
2026-04-25 01:53 4.69767 -74.13575 8369 ft 4 kts 307°
2026-04-25 01:53 4.69796 -74.13613 8369 ft 10 kts 307°
2026-04-25 01:53 4.69847 -74.13680 8369 ft 14 kts 308°
2026-04-25 01:53 4.69915 -74.13771 8369 ft 18 kts 306°
2026-04-25 01:54 4.69991 -74.13871 8369 ft 18 kts 309°
2026-04-25 01:54 4.70060 -74.13963 8369 ft 16 kts 303°
2026-04-25 01:54 4.70129 -74.14059 8369 ft 15 kts 308°
2026-04-25 01:54 4.70176 -74.14118 8369 ft 10 kts 308°
2026-04-25 01:55 4.70225 -74.14181 8369 ft 12 kts 308°
2026-04-25 01:55 4.70279 -74.14251 8369 ft 14 kts 307°
2026-04-25 01:55 4.70336 -74.14325 8369 ft 12 kts 305°
2026-04-25 01:55 4.70315 -74.14394 8369 ft 10 kts 219°
2026-04-25 01:56 4.70251 -74.14442 8369 ft 12 kts 218°
2026-04-25 01:56 4.70183 -74.14495 8369 ft 9 kts 217°
2026-04-25 01:56 4.70164 -74.14509 8369 ft 2 kts 217°
2026-04-25 01:56 4.70144 -74.14524 8369 ft 5 kts 217°
2026-04-25 01:57 4.70069 -74.14583 8369 ft 8 kts 217°
2026-04-25 01:57 4.70017 -74.14620 8369 ft 9 kts 208°
2026-04-25 01:57 4.69974 -74.14611 8369 ft 5 kts 153°
2026-04-25 01:58 4.69953 -74.14601 8369 ft 3 kts 155°
2026-04-25 01:58 4.69944 -74.14597 8369 ft 1 kts 155°
2026-04-25 01:58 4.69942 -74.14596 8369 ft 0 kts 155°